Total_Precipitation_Accumulation
1.45 1.55 1.58 1.40 1.15 1.03 1.02 1.02 1.02 1.02 1.04 1.06 0.98 1.00 1.10 1.11 1.07 1.17 1.28 1.35 1.46 1.55 1.57 1.62 1.68 1.68 1.85 1.90 2.01 2.16 2.27 2.25 2.02 1.78 1.64 1.65 1.70 1.72 1.67 1.55 1.50 1.53 1.50
1.31 1.29 1.12 0.95 0.85 0.81 0.78 0.75 0.76 0.80 0.79 0.79 0.76 0.76 0.85 0.96 0.98 1.06 1.15 1.14 1.23 1.35 1.44 1.47 1.44 1.45 1.58 1.67 1.77 1.87 2.04 2.14 2.05 1.88 1.73 1.62 1.52 1.59 1.73 1.75 1.70 1.62 1.63
0.92 0.95 0.91 0.83 0.77 0.74 0.72 0.69 0.67 0.72 0.76 0.74 0.69 0.72 0.77 0.83 0.97 1.03 1.04 1.03 1.03 1.05 1.13 1.16 1.18 1.29 1.44 1.49 1.52 1.66 1.84 1.94 2.06 1.96 1.84 1.72 1.56 1.52 1.69 1.66 1.70 1.90 1.79
0.70 0.75 0.77 0.77 0.76 0.77 0.77 0.75 0.72 0.74 0.78 0.78 0.70 0.70 0.78 0.88 0.96 1.05 1.05 0.98 0.95 0.97 1.02 0.99 0.96 1.01 1.15 1.30 1.39 1.58 1.78 1.97 2.08 2.05 2.00 1.89 1.77 1.65 1.71 1.83 1.87 1.94 1.94
0.59 0.61 0.71 0.76 0.78 0.77 0.79 0.76 0.75 0.76 0.76 0.76 0.73 0.77 0.82 0.83 0.86 1.02 1.02 0.97 0.98 0.93 0.94 0.98 0.95 0.95 0.98 1.06 1.06 1.27 1.50 1.79 1.96 2.06 2.05 2.03 1.93 1.83 1.71 1.87 1.94 2.04 2.13
0.49 0.52 0.63 0.70 0.72 0.76 0.75 0.73 0.74 0.77 0.78 0.78 0.76 0.79 0.77 0.71 0.92 1.02 0.97 0.97 1.02 1.05 0.99 0.98 0.94 0.92 1.00 1.00 0.98 1.03 1.21 1.43 1.63 1.74 1.80 1.83 1.86 1.93 2.02 2.01 1.97 2.01 2.08
0.47 0.51 0.58 0.62 0.61 0.64 0.65 0.61 0.61 0.67 0.70 0.71 0.73 0.73 0.70 0.70 0.76 0.76 0.83 0.90 1.01 1.04 0.98 1.05 1.07 0.96 1.00 1.03 1.09 1.04 1.00 1.08 1.29 1.49 1.57 1.59 1.68 1.75 1.98 2.01 2.01 2.01 1.90
0.41 0.44 0.51 0.54 0.55 0.55 0.57 0.55 0.55 0.61 0.66 0.68 0.77 0.76 0.67 0.61 0.65 0.63 0.71 0.80 0.91 0.94 0.93 0.98 1.20 1.22 1.11 1.12 1.18 1.24 1.11 0.96 1.02 1.11 1.29 1.45 1.52 1.70 2.00 2.21 2.18 1.95 1.84
0.43 0.42 0.44 0.47 0.50 0.51 0.47 0.47 0.48 0.53 0.57 0.58 0.63 0.70 0.66 0.62 0.65 0.64 0.67 0.73 0.81 0.81 0.84 0.96 1.08 1.18 1.16 1.17 1.12 1.18 1.20 1.07 1.05 1.14 1.14 1.24 1.42 1.60 1.88 2.14 2.23 2.15 1.95
0.44 0.45 0.47 0.47 0.47 0.49 0.47 0.46 0.46 0.52 0.55 0.57 0.58 0.56 0.54 0.55 0.61 0.63 0.69 0.69 0.71 0.69 0.73 0.91 1.12 1.08 1.09 1.15 1.13 1.21 1.30 1.14 1.06 1.17 1.16 1.18 1.22 1.47 1.87 2.05 2.16 2.17 2.04
0.49 0.53 0.53 0.49 0.49 0.55 0.58 0.56 0.53 0.52 0.55 0.56 0.57 0.56 0.52 0.54 0.63 0.63 0.66 0.63 0.67 0.69 0.72 0.82 0.88 0.91 0.93 1.04 1.11 1.13 1.30 1.24 1.23 1.35 1.38 1.32 1.36 1.41 1.56 1.74 1.97 2.13 2.06
0.51 0.55 0.55 0.55 0.55 0.59 0.65 0.66 0.66 0.65 0.65 0.65 0.66 0.64 0.60 0.58 0.60 0.64 0.67 0.68 0.72 0.70 0.74 0.77 0.75 0.78 0.83 0.88 0.90 0.97 1.18 1.31 1.36 1.49 1.51 1.46 1.41 1.43 1.46 1.51 1.65 1.80 1.82
0.52 0.54 0.57 0.58 0.58 0.58 0.62 0.67 0.70 0.70 0.69 0.70 0.70 0.69 0.69 0.66 0.63 0.68 0.71 0.72 0.75 0.72 0.73 0.80 0.82 0.84 0.85 0.81 0.83 0.91 1.07 1.25 1.44 1.49 1.40 1.32 1.35 1.40 1.42 1.53 1.61 1.69 1.73
0.57 0.58 0.58 0.58 0.57 0.58 0.59 0.61 0.62 0.65 0.64 0.65 0.67 0.67 0.66 0.64 0.58 0.59 0.65 0.70 0.76 0.77 0.79 0.83 0.87 0.87 0.83 0.78 0.85 0.96 1.09 1.29 1.41 1.36 1.33 1.23 1.25 1.39 1.45 1.47 1.51 1.51 1.58
0.63 0.63 0.60 0.58 0.57 0.58 0.56 0.56 0.58 0.58 0.64 0.70 0.71 0.72 0.70 0.64 0.67 0.76 0.75 0.69 0.69 0.73 0.79 0.85 0.89 0.94 0.95 0.98 1.07 1.14 1.12 1.16 1.23 1.17 1.23 1.20 1.20 1.31 1.37 1.35 1.39 1.34 1.29
0.63 0.62 0.59 0.62 0.60 0.59 0.58 0.60 0.66 0.67 0.73 0.70 0.70 0.70 0.66 0.66 0.74 0.72 0.75 0.77 0.77 0.83 0.87 0.88 0.96 1.05 1.11 1.16 1.22 1.19 1.15 1.13 1.16 1.16 1.21 1.21 1.17 1.21 1.24 1.28 1.34 1.38 1.38
0.62 0.60 0.58 0.59 0.61 0.60 0.61 0.62 0.66 0.65 0.65 0.64 0.61 0.62 0.64 0.66 0.64 0.63 0.67 0.72 0.76 0.83 0.84 0.90 1.11 1.14 1.11 1.14 1.20 1.21 1.10 1.02 1.03 1.05 1.07 1.09 1.09 1.11 1.16 1.21 1.26 1.32 1.35
0.66 0.72 0.67 0.61 0.62 0.63 0.63 0.63 0.63 0.66 0.68 0.66 0.60 0.58 0.59 0.62 0.63 0.62 0.67 0.69 0.66 0.67 0.68 0.79 0.96 1.01 1.04 1.08 1.07 1.04 0.99 0.95 0.97 0.97 0.95 0.95 0.98 1.04 1.08 1.13 1.16 1.16 1.21
0.57 0.63 0.66 0.66 0.65 0.63 0.61 0.60 0.59 0.59 0.62 0.67 0.65 0.64 0.67 0.68 0.69 0.70 0.70 0.63 0.62 0.64 0.68 0.76 0.84 0.91 0.95 0.96 0.96 0.97 0.96 0.97 0.95 0.95 0.95 0.96 0.98 1.01 1.02 1.00 1.05 1.14 1.13
0.50 0.60 0.66 0.64 0.64 0.65 0.63 0.62 0.63 0.61 0.63 0.64 0.62 0.65 0.69 0.68 0.65 0.65 0.65 0.64 0.67 0.69 0.69 0.70 0.76 0.81 0.86 0.89 0.91 0.93 0.94 0.97 0.96 0.95 0.94 0.95 0.98 1.01 1.01 1.00 1.03 1.06 1.04
0.50 0.54 0.62 0.61 0.59 0.63 0.68 0.69 0.72 0.70 0.68 0.68 0.69 0.74 0.77 0.71 0.70 0.71 0.72 0.72 0.73 0.73 0.72 0.70 0.72 0.76 0.83 0.91 0.96 0.96 0.94 0.96 0.98 0.97 0.98 1.00 1.02 1.04 1.03 1.03 1.04 1.04 1.02
0.58 0.55 0.54 0.56 0.59 0.61 0.66 0.69 0.72 0.73 0.71 0.72 0.74 0.77 0.80 0.74 0.73 0.75 0.75 0.73 0.72 0.74 0.76 0.76 0.76 0.78 0.82 0.87 0.93 0.97 0.98 1.00 1.07 1.11 1.11 1.10 1.13 1.13 1.10 1.10 1.11 1.11 1.09
0.60 0.61 0.60 0.58 0.58 0.63 0.65 0.65 0.69 0.72 0.74 0.76 0.76 0.75 0.74 0.74 0.74 0.74 0.75 0.76 0.75 0.78 0.80 0.81 0.80 0.79 0.80 0.85 0.89 0.94 0.95 0.95 1.03 1.15 1.23 1.21 1.20 1.21 1.20 1.16 1.13 1.15 1.17
0.55 0.61 0.59 0.57 0.57 0.60 0.60 0.63 0.66 0.67 0.68 0.72 0.74 0.74 0.75 0.76 0.77 0.77 0.79 0.80 0.81 0.80 0.81 0.85 0.85 0.80 0.77 0.79 0.84 0.89 0.94 0.99 1.06 1.13 1.21 1.26 1.21 1.17 1.19 1.17 1.12 1.11 1.18
0.51 0.56 0.58 0.58 0.60 0.61 0.63 0.66 0.67 0.67 0.65 0.66 0.68 0.69 0.70 0.72 0.75 0.79 0.82 0.85 0.86 0.84 0.83 0.84 0.85 0.84 0.80 0.78 0.82 0.86 0.99 1.07 1.08 1.09 1.14 1.22 1.20 1.15 1.14 1.14 1.13 1.13 1.17
0.50 0.51 0.55 0.58 0.60 0.61 0.63 0.67 0.69 0.70 0.69 0.68 0.69 0.72 0.73 0.74 0.75 0.75 0.79 0.81 0.84 0.83 0.80 0.80 0.79 0.79 0.79 0.77 0.78 0.87 0.96 0.95 1.00 1.10 1.14 1.21 1.29 1.26 1.22 1.21 1.18 1.20 1.21